Fallon NAS, NV

8:58 AM PST on December 15, 2017 (GMT -0800)
Fallon Naval Air Station

Weather History for KNFL - October, 2013

Change the Weather History Date:

Saturday, October 12, 2013

  Actual Average Record
Temperature  
Mean Temperature 52 °F -  
Max Temperature 70 °F 69 °F 87 °F (2015)
Min Temperature 35 °F 35 °F 22 °F (1986)
Degree Days  
Heating Degree Days 12    
Growing Degree Days 2 (Base 50)    
Moisture  
Dew Point 24 °F    
Average Humidity 36    
Maximum Humidity 63    
Minimum Humidity 15    
Precipitation  
Precipitation 0.00 in - - ()
Sea Level Pressure  
Sea Level Pressure 29.86 in    
Wind  
Wind Speed 5 mph (SSW)    
Max Wind Speed 16 mph    
Max Gust Speed -    
Visibility 10 miles    
Events      
Averages and records for this station are not official NWS values.
T = Trace of Precipitation, MM = Missing Value Source: NWS Daily Summary

Daily Weather History Graph

Daily Weather History Graph

Search for Another Location

Airport or City:

Trip Planner

Search our weather history database for the weather conditions in past years. The results will help you decide how hot, cold, wet, or windy it might be!

Date:

Astronomy

Oct. 12, 2013 Rise Set
Actual Time 7:02 AM PDT 6:19 PM PDT
Civil Twilight 6:35 AM PDT 6:46 PM PDT
Nautical Twilight 6:03 AM PDT 7:17 PM PDT
Astronomical Twilight 5:32 AM PDT 7:48 PM PDT
Moon 2:31 PM PDT (10/12) 12:12 AM PDT (10/12)
Length of Visible Light 12h 11m
Length of Day
11h 17m
First Quarter, 60% of the Moon is Illuminated
Oct 12
First Quarter
Oct 18
Full
Oct 26
Last Quarter
Nov 3
New
Nov 9
First Quarter

Hourly Weather History & Observations

Time (PDT) Temp. Windchill Dew Point Humidity Pressure Visibility Wind Dir Wind Speed Gust Speed Precip Events Conditions
12:56 AM 43.0 °F 41.3 °F 21.0 °F 42% 29.92 in 10.0 mi South 3.5 mph - N/A   Clear
1:56 AM 42.1 °F - 19.9 °F 41% 29.93 in 10.0 mi Calm Calm - N/A   Clear
2:56 AM 37.0 °F 34.5 °F 18.0 °F 46% 29.91 in 10.0 mi WSW 3.5 mph - N/A   Clear
3:56 AM 35.1 °F 29.3 °F 19.0 °F 52% 29.91 in 10.0 mi South 6.9 mph - N/A   Clear
4:56 AM 36.0 °F 29.6 °F 19.0 °F 50% 29.91 in 10.0 mi SSE 8.1 mph - N/A   Clear
5:56 AM 37.9 °F 34.4 °F 18.0 °F 45% 29.91 in 10.0 mi South 4.6 mph - N/A   Clear
6:56 AM 36.0 °F 29.6 °F 18.0 °F 48% 29.91 in 10.0 mi SSE 8.1 mph - N/A   Clear
7:56 AM 41.0 °F 37.1 °F 19.9 °F 43% 29.93 in 10.0 mi SSE 5.8 mph - N/A   Clear
8:56 AM 50.0 °F - 23.0 °F 35% 29.93 in 10.0 mi SSE 4.6 mph - N/A   Scattered Clouds
9:56 AM 55.0 °F - 28.0 °F 35% 29.92 in 10.0 mi SSE 3.5 mph - N/A   Scattered Clouds
10:56 AM 60.1 °F - 30.0 °F 32% 29.90 in 10.0 mi Calm Calm - N/A   Scattered Clouds
11:56 AM 62.1 °F - 30.0 °F 30% 29.88 in 10.0 mi Calm Calm - N/A   Scattered Clouds
12:56 PM 64.0 °F - 24.1 °F 22% 29.84 in 10.0 mi WSW 5.8 mph - N/A   Scattered Clouds
1:56 PM 66.0 °F - 23.0 °F 20% 29.81 in 10.0 mi Variable 3.5 mph - N/A   Scattered Clouds
2:56 PM 70.0 °F - 21.0 °F 16% 29.79 in 9.0 mi Variable 5.8 mph - N/A   Scattered Clouds
3:56 PM 68.0 °F - 19.9 °F 16% 29.77 in 10.0 mi Variable 3.5 mph - N/A   Scattered Clouds
4:56 PM 66.9 °F - 18.0 °F 15% 29.77 in 10.0 mi NE 6.9 mph - N/A   Mostly Cloudy
5:56 PM 64.9 °F - 24.1 °F 21% 29.77 in 10.0 mi NNW 10.4 mph - N/A   Mostly Cloudy
6:56 PM 63.0 °F - 25.0 °F 24% 29.78 in 10.0 mi WNW 9.2 mph - N/A   Overcast
7:56 PM 60.1 °F - 24.1 °F 25% 29.80 in 10.0 mi WNW 11.5 mph - N/A   Scattered Clouds
8:56 PM 57.9 °F - 25.0 °F 28% 29.82 in 10.0 mi WNW 16.1 mph - N/A   Clear
9:56 PM 51.1 °F - 33.1 °F 50% 29.85 in 10.0 mi North 12.7 mph - N/A   Clear
10:56 PM 48.9 °F - 34.0 °F 56% 29.86 in 10.0 mi North 11.5 mph - N/A   Scattered Clouds
11:56 PM 45.0 °F - 33.1 °F 63% 29.87 in 10.0 mi Calm Calm - N/A   Clear